STARLINK-11162, 60123

Orbit data source: Space-Track

STARLINK-11162, 60123 is a payload satellite owned by SpaceX/Seattle (US) in LEO that was launched on Mon, 24 Jun 2024 UTC via an FALCON 9 launch vehicle from the Air Force Western Test Range (AFWTR). Payload-class satellites include a variety of spacecraft equipped with specific instruments for various scientific and technological missions. These include communications satellites like Starlink; space stations such as the ISS; scientific satellites like the Hubble; Earth observation satellites from companies like Planet Labs, Umbra, and HawkEye 360; GPS; miniature CubeSats for education and research; and military/defense satellites.

Loading next visibility...
Identifier
60123, 2024-118L
Orbit
LEO
Country
Flag of USUS
Related business
Manufacturer
SpaceX/Seattle
Mission
Operational Commercial Communications
Bus & Motor
STARLINK V2MD, Unknown motor
Mass
960 kg wet, ~910 kg dry
Launch date (UTC)
2024-06-24 (2 years ago)
Launch vehicle
FALCON 9
Launch site
Air Force Western Test Range (AFWTR)
Object type
Payload
Rocket body
Debris
Shape & HBR
Box + 2 Pan, 18.1 m
Radar Cross Section
36.964 m², Large (>1 m²)

Expand to show TLE details & history
Last TLE update: 6 hours ago

TLE from 6 hours ago
0 STARLINK-11162
1 60123U 24118L   26035.23870194 -.00002358  00000-0 -14622-4 0  9997
2 60123  53.1577  25.8516 0001022  78.6316 281.4817 15.69698375 92747
Epoch: 2026-02-04T05:43Z
TLE epoch observation values (Epoch: 2026-02-04T05:43:43.847Z)
Latitude
-0°
Longitude
165.51076°
Altitude
360.538 km
Speed
7.694 km/s
True Right ascension
01h 43m 24s
True Declination
0° 00' 00"
Sunlit
Object was in daylight at epoch
Visualization orbit readout
Latitude
Unknown
Longitude
Unknown
Altitude
Unknown
Speed
Unknown
Apparent Right ascension
Unknown
Apparent Declination
Unknown
Sunlit
N/A
Visualization observer readout
Local Sidereal Time
13:49:46
Azimuth
Unknown
Elevation
Unknown
Doppler factor
Unknown
Orbital elements
Apogee altitude
360.71 km
Perigee altitude
359.332 km
Semi-major axis
6,738.158 km
Eccentricity
0.0001
Inclination
53.1577°
RAAN
25.8516°
Arg. of periapsis
78.6316°
True anomaly
281.47022°
Mean anomaly
281.4817°
Eccentric anomaly
281.47596°
Mean motion
3.92402 °/min
Orbital period
91.74 mins
BSTAR
-0.000014622
Loading maneuver chart data...
Computing Atmospheric mass density...
Loading historical data...
Loading historical data...
Loading historical data...
Loading historical data...
Loading historical data...
Loading historical data...
Loading historical data...

Documentation

Showing up to 5 results
|